MDT,Max TemperatureF,Mean TemperatureF,Min TemperatureF,Max Dew PointF,MeanDew PointF,Min DewpointF,Max Humidity, Mean Humidity, Min Humidity, Max Sea Level PressureIn, Mean Sea Level PressureIn, Min Sea Level PressureIn, Max VisibilityMiles, Mean VisibilityMiles, Min VisibilityMiles, Max Wind SpeedMPH, Mean Wind SpeedMPH, Max Gust SpeedMPH,PrecipitationIn, CloudCover, Events, WindDirDegrees
2013-5-1,54,42,30,31,28,20,100,64,28,30.67,30.50,30.30,10,9,3,17,4,36,T,6,Snow,100
2013-5-2,67,47,26,27,24,20,81,50,18,30.70,30.53,30.30,10,10,10,13,2,16,0.00,0,,30
2013-5-3,58,50,42,40,36,29,76,61,46,30.30,30.27,30.25,10,10,10,21,7,25,T,7,,355
2013-5-4,64,50,35,40,35,31,92,62,32,30.34,30.26,30.17,10,10,10,14,4,29,0.00,5,,349
2013-5-5,74,54,33,36,33,30,89,56,22,30.17,30.05,29.91,10,10,10,21,8,25,0.00,0,,52
2013-5-6,78,58,37,38,32,23,82,48,13,30.02,29.91,29.78,10,10,9,14,3,18,0.00,0,,344
2013-5-7,78,59,39,39,35,31,79,51,23,30.00,29.90,29.84,10,10,10,20,7,26,0.00,0,,59
2013-5-8,82,63,43,39,35,31,65,41,17,30.08,30.02,29.96,10,10,10,14,5,18,0.00,0,,52
2013-5-9,82,62,42,52,41,37,76,48,20,30.16,30.08,30.01,10,10,10,17,3,23,0.02,1,,133
2013-5-10,82,63,43,44,39,34,83,51,18,30.29,30.21,30.12,10,10,10,31,5,38,0.00,1,,148
2013-5-11,84,64,43,44,40,34,83,50,17,30.26,30.16,30.04,10,10,10,20,3,25,0.00,0,,279
2013-5-12,86,67,47,47,44,41,80,51,21,30.16,30.02,29.92,10,10,10,31,5,39,0.00,1,,289
2013-5-13,83,67,50,56,48,40,83,56,28,30.05,29.93,29.73,10,9,2,35,6,44,0.21,5,Rain-Thunderstorm,321
2013-5-14,66,56,45,39,33,26,66,45,24,30.13,30.05,29.98,10,10,10,21,9,28,0.00,2,,324
2013-5-15,67,51,34,37,34,30,82,57,31,30.13,30.02,29.90,10,10,10,15,5,21,0.00,0,,353
2013-5-16,62,52,42,45,41,37,93,68,43,29.99,29.92,29.86,10,10,8,8,2,12,0.14,4,Rain,57
2013-5-17,54,48,41,48,44,39,93,82,71,29.98,29.93,29.89,10,10,6,6,1,7,0.19,7,Rain,270
2013-5-18,61,54,47,49,47,42,93,75,57,30.12,30.01,29.97,10,9,6,21,4,28,0.09,8,Rain,313
2013-5-19,62,53,44,47,44,41,92,75,57,30.25,30.19,30.11,10,10,6,15,3,20,0.05,8,Rain,330
2013-5-20,72,58,44,45,42,39,92,62,31,30.29,30.17,30.01,10,10,10,8,3,,0.00,3,,315
2013-5-21,77,64,50,47,42,37,77,53,29,30.00,29.77,29.60,10,10,10,30,13,38,T,2,Rain,123
2013-5-22,61,51,41,49,42,37,93,76,59,30.02,29.78,29.57,10,10,6,31,13,38,0.29,6,Rain,330
2013-5-23,59,49,39,37,33,29,87,57,24,30.04,29.98,29.92,10,10,10,17,5,29,0.00,4,,351
2013-5-24,64,51,37,39,35,31,85,61,36,30.05,29.96,29.88,10,10,10,33,7,41,0.01,4,Rain,251
2013-5-25,65,49,32,36,33,29,92,62,32,30.08,30.02,29.98,10,10,10,13,3,31,0.00,2,,356
2013-5-26,71,53,35,46,39,33,92,62,31,30.04,29.95,29.85,10,10,10,24,5,30,T,3,Rain,243
2013-5-27,67,58,49,48,45,38,89,63,37,29.95,29.87,29.77,10,10,10,18,4,22,0.05,7,Rain,170
2013-5-28,63,56,49,49,48,44,100,78,55,29.83,29.79,29.77,10,9,4,16,4,21,0.29,7,Rain,326
2013-5-29,71,57,43,49,42,37,100,66,31,29.85,29.75,29.62,10,10,10,22,4,28,T,4,Rain,280
2013-5-30,62,55,47,43,39,33,86,61,36,30.10,29.96,29.86,10,10,6,29,9,33,0.02,7,Rain,311
2013-5-31,66,54,42,40,36,32,82,57,32,30.29,30.21,30.12,10,10,10,16,6,21,0.00,7,,316